Simultaneous Nadir Overpasses (SNOs) Predictions

Prediction of SNOs between METOP-B and NOAA-19 Satellite Orbit:

Table of predicted SNOs for the next 14.0 days since TLE Epoch: 10/24/2020
Index Date (METOP-B) Time (METOP-B) Lat,Lon (METOP-B) SZA (METOP-B ) Date (NOAA-19) Time (NOAA-19) Lat,Lon (NOAA-19) SZA (NOAA-19 ) Distance(km) Time Diff (sec)
1 11/01/2020 09:35:59 80.25, 61.07 96.03 11/01/2020 09:34:57 80.24, 61.03 96.00 1.42 62
2 11/01/2020 10:26:41 -80.24,-131.70 83.98 11/01/2020 10:26:00 -80.23,-131.67 83.99 1.02 41
3 11/01/2020 11:17:21 80.24, 35.61 96.04 11/01/2020 11:16:57 80.23, 35.69 96.02 1.93 24
4 11/01/2020 12:08:03 -80.23,-157.16 83.97 11/01/2020 12:08:00 -80.22,-157.00 83.97 3.12 3
5 11/01/2020 12:58:43 80.23, 10.15 96.04 11/01/2020 12:58:58 80.24, 10.02 96.04 2.65 15
6 11/01/2020 13:49:25 -80.22, 177.38 83.97 11/01/2020 13:50:01 -80.23, 177.34 83.95 1.72 36
7 11/01/2020 14:40:05 80.22, -15.31 96.04 11/01/2020 14:40:58 80.23, -15.32 96.07 1.23 53
